Previsão horária em Aarschot

Hoje, 25 Outubro, Domingo

Tempo Temperatura Precipitação Vento Pressão Humidade
00:00 +13°C° 0 mm 9 m/s 749 mmHg 76%
01:00 +13°C° 0 mm 9 m/s 749 mmHg 74%
02:00 +13°C° 0 mm 9 m/s 748 mmHg 72%
03:00 +13°C° 0 mm 9 m/s 748 mmHg 70%
04:00 +13°C° 0.3 mm 9 m/s 748 mmHg 73%
05:00 +12°C° 0.3 mm 9 m/s 748 mmHg 76%
06:00 +12°C° 0.3 mm 9 m/s 748 mmHg 80%
07:00 +12°C° 0.6 mm 8 m/s 748 mmHg 82%
08:00 +12°C° 0.6 mm 7 m/s 748 mmHg 84%
09:00 +11°C° 0.6 mm 6 m/s 748 mmHg 86%
10:00 +11°C° 0.2 mm 6 m/s 748 mmHg 84%
11:00 +11°C° 0.2 mm 6 m/s 748 mmHg 82%
12:00 +12°C° 0.2 mm 5 m/s 748 mmHg 80%
13:00 +12°C° 0.1 mm 5 m/s 748 mmHg 79%
14:00 +12°C° 0.1 mm 5 m/s 748 mmHg 78%
15:00 +12°C° 0.1 mm 4 m/s 748 mmHg 77%
16:00 +12°C° 0.1 mm 5 m/s 748 mmHg 78%
17:00 +10°C° 0.1 mm 5 m/s 748 mmHg 79%
18:00 +10°C° 0.1 mm 5 m/s 748 mmHg 79%
19:00 +9°C° 0 mm 5 m/s 748 mmHg 81%
20:00 +8°C° 0 mm 5 m/s 748 mmHg 83%
21:00 +8°C° 0 mm 5 m/s 748 mmHg 84%
22:00 +8°C° 0 mm 5 m/s 748 mmHg 85%
23:00 +8°C° 0 mm 5 m/s 748 mmHg 86%

Amanhã, 26 Outubro, Segunda-feira

Tempo Temperatura Precipitação Vento Pressão Humidade
00:00 +8°C° 0 mm 6 m/s 748 mmHg 87%
01:00 +7°C° 0 mm 6 m/s 748 mmHg 87%
02:00 +7°C° 0 mm 6 m/s 748 mmHg 88%
03:00 +7°C° 0 mm 5 m/s 748 mmHg 88%
04:00 +7°C° 0 mm 5 m/s 748 mmHg 88%
05:00 +6°C° 0 mm 5 m/s 749 mmHg 89%
06:00 +6°C° 0 mm 5 m/s 749 mmHg 89%
07:00 +7°C° 0 mm 5 m/s 749 mmHg 85%
08:00 +8°C° 0 mm 6 m/s 748 mmHg 81%
09:00 +9°C° 0 mm 6 m/s 748 mmHg 77%
10:00 +10°C° 0 mm 6 m/s 748 mmHg 72%
11:00 +11°C° 0 mm 7 m/s 748 mmHg 68%
12:00 +12°C° 0 mm 7 m/s 748 mmHg 64%
13:00 +11°C° 0 mm 7 m/s 748 mmHg 64%
14:00 +11°C° 0 mm 7 m/s 748 mmHg 65%
15:00 +11°C° 0 mm 6 m/s 747 mmHg 66%
16:00 +10°C° 0 mm 6 m/s 747 mmHg 69%
17:00 +10°C° 0 mm 6 m/s 747 mmHg 72%
18:00 +9°C° 0 mm 6 m/s 747 mmHg 75%
19:00 +9°C° 0.1 mm 6 m/s 748 mmHg 76%
20:00 +8°C° 0.1 mm 6 m/s 748 mmHg 77%
21:00 +8°C° 0.1 mm 6 m/s 748 mmHg 78%
22:00 +8°C° 0 mm 6 m/s 748 mmHg 80%
23:00 +8°C° 0 mm 6 m/s 748 mmHg 82%

Depois de amanhã, 27 Outubro, Terça-feira

Tempo Temperatura Precipitação Vento Pressão Humidade
00:00 +7°C° 0 mm 6 m/s 748 mmHg 84%
01:00 +7°C° 0 mm 6 m/s 748 mmHg 85%
02:00 +7°C° 0 mm 5 m/s 748 mmHg 86%
03:00 +7°C° 0 mm 5 m/s 748 mmHg 87%
04:00 +7°C° 0 mm 6 m/s 748 mmHg 86%
05:00 +7°C° 0 mm 6 m/s 748 mmHg 86%
06:00 +8°C° 0 mm 6 m/s 749 mmHg 86%
07:00 +8°C° 0 mm 6 m/s 749 mmHg 84%
08:00 +8°C° 0 mm 6 m/s 749 mmHg 82%
09:00 +9°C° 0 mm 7 m/s 749 mmHg 80%
10:00 +9°C° 0 mm 7 m/s 749 mmHg 76%
11:00 +10°C° 0 mm 7 m/s 749 mmHg 71%
12:00 +11°C° 0 mm 7 m/s 749 mmHg 67%
13:00 +11°C° 0 mm 6 m/s 749 mmHg 67%
14:00 +11°C° 0 mm 6 m/s 749 mmHg 66%
15:00 +11°C° 0 mm 6 m/s 749 mmHg 66%
16:00 +11°C° 0.1 mm 6 m/s 748 mmHg 70%
17:00 +10°C° 0.1 mm 7 m/s 747 mmHg 73%
18:00 +10°C° 0.1 mm 8 m/s 747 mmHg 77%
19:00 +10°C° 0.4 mm 8 m/s 747 mmHg 79%
20:00 +10°C° 0.4 mm 9 m/s 746 mmHg 81%
21:00 +10°C° 0.4 mm 9 m/s 746 mmHg 83%
22:00 +10°C° 0.8 mm 7 m/s 746 mmHg 84%
23:00 +10°C° 0.8 mm 6 m/s 747 mmHg 84%

28 Outubro, Quarta-feira

Tempo Temperatura Precipitação Vento Pressão Humidade
00:00 +11°C° 0.8 mm 4 m/s 747 mmHg 85%
01:00 +10°C° 0.1 mm 4 m/s 747 mmHg 85%
02:00 +10°C° 0.1 mm 4 m/s 748 mmHg 85%
03:00 +8°C° 0.1 mm 5 m/s 748 mmHg 85%
04:00 +8°C° 0 mm 5 m/s 748 mmHg 85%
05:00 +8°C° 0 mm 5 m/s 748 mmHg 84%
06:00 +8°C° 0 mm 5 m/s 748 mmHg 84%
07:00 +8°C° 0 mm 6 m/s 748 mmHg 81%
08:00 +9°C° 0 mm 7 m/s 748 mmHg 78%
09:00 +10°C° 0 mm 8 m/s 748 mmHg 75%
10:00 +10°C° 0.1 mm 8 m/s 748 mmHg 74%
11:00 +10°C° 0.1 mm 9 m/s 748 mmHg 74%
12:00 +11°C° 0.1 mm 9 m/s 748 mmHg 73%
13:00 +11°C° 0.2 mm 8 m/s 748 mmHg 72%
14:00 +11°C° 0.2 mm 8 m/s 748 mmHg 71%
15:00 +11°C° 0.2 mm 8 m/s 748 mmHg 70%
16:00 +11°C° 0 mm 7 m/s 748 mmHg 71%
17:00 +10°C° 0 mm 7 m/s 748 mmHg 73%
18:00 +9°C° 0 mm 7 m/s 748 mmHg 74%
19:00 +9°C° 0.3 mm 7 m/s 748 mmHg 76%
20:00 +9°C° 0.3 mm 7 m/s 749 mmHg 78%
21:00 +9°C° 0.3 mm 7 m/s 749 mmHg 80%
22:00 +9°C° 0.4 mm 8 m/s 749 mmHg 81%
23:00 +9°C° 0.4 mm 8 m/s 749 mmHg 81%

29 Outubro, Quinta-feira

Tempo Temperatura Precipitação Vento Pressão Humidade
00:00 +8°C° 0.4 mm 9 m/s 750 mmHg 82%
01:00 +8°C° 0.1 mm 9 m/s 750 mmHg 82%
02:00 +8°C° 0.1 mm 9 m/s 750 mmHg 82%
03:00 +8°C° 0.1 mm 9 m/s 751 mmHg 81%
04:00 +9°C° 0.1 mm 8 m/s 751 mmHg 82%
05:00 +9°C° 0.1 mm 8 m/s 752 mmHg 82%
06:00 +9°C° 0.1 mm 8 m/s 753 mmHg 82%
07:00 +9°C° 0 mm 8 m/s 753 mmHg 81%
08:00 +9°C° 0 mm 8 m/s 754 mmHg 80%
09:00 +9°C° 0 mm 8 m/s 754 mmHg 79%
10:00 +10°C° 0 mm 8 m/s 754 mmHg 77%
11:00 +10°C° 0 mm 8 m/s 754 mmHg 76%
12:00 +11°C° 0 mm 9 m/s 754 mmHg 74%
13:00 +11°C° 0 mm 9 m/s 754 mmHg 73%
14:00 +12°C° 0 mm 9 m/s 754 mmHg 72%
15:00 +12°C° 0 mm 9 m/s 754 mmHg 72%
16:00 +12°C° 0 mm 9 m/s 754 mmHg 72%
17:00 +13°C° 0 mm 9 m/s 754 mmHg 73%
18:00 +13°C° 0 mm 10 m/s 754 mmHg 74%
19:00 +13°C° 0 mm 10 m/s 754 mmHg 73%
20:00 +13°C° 0 mm 10 m/s 755 mmHg 72%
21:00 +13°C° 0 mm 10 m/s 755 mmHg 72%
22:00 +13°C° 0 mm 9 m/s 755 mmHg 73%
23:00 +13°C° 0 mm 9 m/s 756 mmHg 74%

30 Outubro, Sexta-feira

Tempo Temperatura Precipitação Vento Pressão Humidade
00:00 +13°C° 0 mm 8 m/s 756 mmHg 75%
01:00 +13°C° 0 mm 8 m/s 756 mmHg 75%
02:00 +13°C° 0 mm 8 m/s 756 mmHg 75%
03:00 +13°C° 0 mm 8 m/s 756 mmHg 76%
04:00 +13°C° 0 mm 9 m/s 756 mmHg 75%
05:00 +13°C° 0 mm 9 m/s 756 mmHg 74%
06:00 +13°C° 0 mm 9 m/s 756 mmHg 73%
07:00 +13°C° 0 mm 9 m/s 756 mmHg 74%
08:00 +13°C° 0 mm 9 m/s 756 mmHg 74%
09:00 +13°C° 0 mm 9 m/s 756 mmHg 74%
10:00 +15°C° 0 mm 9 m/s 756 mmHg 72%
11:00 +15°C° 0 mm 9 m/s 757 mmHg 71%
12:00 +16°C° 0 mm 8 m/s 757 mmHg 69%
13:00 +16°C° 0 mm 8 m/s 757 mmHg 69%
14:00 +16°C° 0 mm 7 m/s 757 mmHg 69%
15:00 +16°C° 0 mm 6 m/s 756 mmHg 69%
16:00 +15°C° 0 mm 6 m/s 756 mmHg 71%
17:00 +14°C° 0 mm 6 m/s 756 mmHg 74%
18:00 +14°C° 0 mm 5 m/s 756 mmHg 76%
19:00 +13°C° 0 mm 6 m/s 756 mmHg 76%
20:00 +13°C° 0 mm 6 m/s 756 mmHg 75%
21:00 +13°C° 0 mm 6 m/s 756 mmHg 75%
22:00 +13°C° 0 mm 6 m/s 755 mmHg 75%
23:00 +13°C° 0 mm 6 m/s 755 mmHg 75%
Mostrar mais